Location: Auckland
(36.8670°S, 174.7670°E)
Time: 21:51:26
(UTC+12:00)

A-11 Canister half - Pass Details

Date: 28 July 2019
Orbit: 1526 x 1682 km, 47.3° (Epoch: 25 August)

Event Time Altitude Azimuth Distance (km) Brightness Sun altitude
Rises 15:16:00 0° 244° (WSW) 4,824 11.8 21.4°
Reaches altitude 10° 15:19:41 10° 255° (WSW) 3,858 11.6 20.9°
Maximum altitude 15:27:30 28° 308° (NW) 2,751 12.8 19.8°
Drops below altitude 10° 15:35:28 10° 1° (N) 3,918 11.9 18.7°
Sets 15:39:16 0° 12° (NNE) 4,911 12.1 18.1°
